Hillsdale, MI

3:31 PM EST on November 20, 2019 (GMT -0500)
Hillsdale Municipal

Weather History for KJYM - September, 2019

Change the Weather History Date:

Friday, September 13, 2019

  Actual Average Record
Temperature  
Mean Temperature 72 °F -  
Max Temperature 83 °F 74 °F 93 °F (1952)
Min Temperature 62 °F 51 °F 31 °F (1964)
Cooling Degree Days 8    
Growing Degree Days 22 (Base 50)    
Moisture  
Dew Point 65 °F    
Average Humidity 81    
Maximum Humidity 96    
Minimum Humidity 52    
Precipitation  
Precipitation 0.00 in - - ()
Sea Level Pressure  
Sea Level Pressure 30.08 in    
Wind  
Wind Speed 10 mph ()    
Max Wind Speed 18 mph    
Max Gust Speed 26 mph    
Visibility 8.0 miles    
Events      
Averages and records for this station are not official NWS values.
T = Trace of Precipitation, MM = Missing Value Source: Averaged Metar Reports

Daily Weather History Graph

Daily Weather History Graph

Search for Another Location

Airport or City:

Astronomy

Sep. 13, 2019 Rise Set
Actual Time 7:16 AM EDT 7:51 PM EDT
Civil Twilight 6:48 AM EDT 8:19 PM EDT
Nautical Twilight 6:14 AM EDT 8:52 PM EDT
Astronomical Twilight 5:40 AM EDT 9:26 PM EDT
Moon 8:05 PM EDT (9/13) 6:30 AM EDT (9/13)
Length of Visible Light 13h 31m
Length of Day
12h 35m
Full, 100% of the Moon is Illuminated
Sep 13
Full
Sep 14
Full
Sep 21
Last Quarter
Sep 28
New
Oct 5
First Quarter

Hourly Weather History & Observations

Time (EDT) Temp. Heat Index Dew Point Humidity Pressure Visibility Wind Dir Wind Speed Gust Speed Precip Events Conditions
12:37 AM 64.8 °F - 63.7 °F 96% 30.18 in 2.0 mi ESE 10.4 mph 17.3 mph N/A   Overcast
12:55 AM 64.8 °F - 63.7 °F 96% 30.18 in 3.0 mi East 11.5 mph - N/A   Overcast
1:15 AM 64.6 °F - 63.5 °F 96% 30.17 in 5.0 mi ESE 11.5 mph 19.6 mph N/A   Overcast
1:16 AM 64.6 °F - 63.5 °F 96% 30.17 in 5.0 mi ESE 13.8 mph 19.6 mph N/A   Overcast
1:35 AM 64.4 °F - 63.3 °F 96% 30.16 in 7.0 mi ESE 13.8 mph 20.7 mph N/A   Overcast
1:40 AM 64.4 °F - 63.3 °F 96% 30.17 in 7.0 mi ESE 11.5 mph 20.7 mph N/A   Overcast
1:57 AM 64.6 °F - 63.3 °F 96% 30.16 in 7.0 mi ESE 9.2 mph 17.3 mph N/A   Overcast
2:16 AM 64.4 °F - 63.3 °F 96% 30.16 in 5.0 mi ESE 10.4 mph 17.3 mph N/A   Overcast
2:35 AM 64.6 °F - 63.1 °F 95% 30.16 in 7.0 mi ESE 9.2 mph - N/A   Overcast
2:36 AM 64.6 °F - 63.1 °F 95% 30.16 in 7.0 mi ESE 9.2 mph - N/A   Overcast
2:55 AM 64.6 °F - 63.1 °F 95% 30.16 in 7.0 mi ESE 9.2 mph - N/A   Overcast
2:56 AM 64.6 °F - 63.1 °F 95% 30.16 in 7.0 mi ESE 10.4 mph - N/A   Overcast
3:19 AM 64.8 °F - 63.1 °F 94% 30.15 in 7.0 mi SE 9.2 mph - N/A   Overcast
3:37 AM 64.8 °F - 63.1 °F 94% 30.14 in 7.0 mi East 5.8 mph - N/A   Overcast
3:55 AM 64.8 °F - 63.0 °F 94% 30.13 in 10.0 mi ESE 6.9 mph - N/A   Overcast
3:56 AM 64.8 °F - 63.0 °F 94% 30.13 in 10.0 mi ESE 8.1 mph - N/A   Overcast
4:15 AM 64.8 °F - 63.0 °F 94% 30.13 in 10.0 mi East 9.2 mph - N/A   Overcast
4:16 AM 64.9 °F - 63.0 °F 93% 30.13 in 10.0 mi East 8.1 mph - N/A   Overcast
4:35 AM 64.8 °F - 63.0 °F 94% 30.12 in 10.0 mi ESE 9.2 mph - N/A   Overcast
4:58 AM 64.8 °F - 63.0 °F 94% 30.11 in 7.0 mi ESE 10.4 mph 16.1 mph N/A   Overcast
5:16 AM 64.8 °F - 63.0 °F 94% 30.11 in 10.0 mi ESE 9.2 mph - N/A   Overcast
5:35 AM 64.8 °F - 63.0 °F 94% 30.11 in 7.0 mi ESE 9.2 mph - N/A   Overcast
5:36 AM 64.8 °F - 63.0 °F 94% 30.11 in 7.0 mi ESE 8.1 mph - N/A   Overcast
5:55 AM 64.9 °F - 63.1 °F 94% 30.11 in 7.0 mi SE 5.8 mph - N/A   Overcast
5:56 AM 64.9 °F - 63.1 °F 94% 30.11 in 7.0 mi SE 8.1 mph - N/A   Overcast
6:19 AM 65.3 °F - 63.5 °F 94% 30.11 in 7.0 mi SE 8.1 mph - N/A   Overcast
6:37 AM 65.3 °F - 63.5 °F 94% 30.11 in 7.0 mi SE 8.1 mph - N/A   Overcast
6:55 AM 65.3 °F - 63.5 °F 94% 30.11 in 7.0 mi SE 9.2 mph - N/A   Overcast
6:56 AM 65.3 °F - 63.5 °F 94% 30.11 in 7.0 mi SE 8.1 mph - N/A   Overcast
7:15 AM 65.3 °F - 63.7 °F 94% 30.11 in 5.0 mi SSE 6.9 mph - N/A   Overcast
7:16 AM 65.5 °F - 63.9 °F 94% 30.11 in 5.0 mi SSE 8.1 mph - N/A   Overcast
7:35 AM 65.7 °F - 64.0 °F 94% 30.10 in 4.0 mi SE 9.2 mph - N/A   Overcast
7:58 AM 65.8 °F - 64.4 °F 95% 30.10 in 3.0 mi SSE 8.1 mph - N/A   Overcast
8:16 AM 65.8 °F - 64.6 °F 96% 30.10 in 2.0 mi SE 8.1 mph - N/A   Overcast
8:35 AM 65.8 °F - 64.6 °F 96% 30.10 in 1.8 mi SE 9.2 mph - N/A   Overcast
8:36 AM 66.0 °F - 64.6 °F 95% 30.09 in 1.8 mi SE 8.1 mph - N/A   Overcast
8:55 AM 66.2 °F - 64.9 °F 96% 30.10 in 1.5 mi SSE 9.2 mph - N/A   Overcast
8:56 AM 66.4 °F - 65.1 °F 96% 30.09 in 1.5 mi SE 9.2 mph - N/A   Overcast
9:19 AM 66.7 °F - 65.5 °F 96% 30.10 in 1.8 mi SSE 5.8 mph - N/A   Overcast
9:37 AM 67.3 °F - 65.8 °F 95% 30.10 in 2.5 mi SSE 5.8 mph - N/A   Overcast
9:55 AM 68.2 °F - 66.4 °F 94% 30.09 in 3.0 mi SSE 8.1 mph - N/A   Overcast
10:15 AM 69.8 °F - 67.1 °F 91% 30.08 in 4.0 mi SSE 8.1 mph - N/A   Overcast
10:16 AM 69.8 °F - 67.1 °F 91% 30.08 in 4.0 mi SSE 9.2 mph - N/A   Overcast
10:35 AM 71.6 °F - 68.0 °F 88% 30.09 in 5.0 mi SSE 9.2 mph - N/A   Overcast
10:58 AM 72.9 °F - 68.2 °F 85% 30.08 in 7.0 mi South 6.9 mph - N/A   Scattered Clouds
11:16 AM 75.0 °F - 68.9 °F 81% 30.08 in 7.0 mi South 8.1 mph 16.1 mph N/A   Clear
11:35 AM 76.3 °F - 69.1 °F 78% 30.07 in 10.0 mi South 10.4 mph 16.1 mph N/A   Scattered Clouds
11:36 AM 76.5 °F - 69.1 °F 78% 30.07 in 10.0 mi South 8.1 mph - N/A   Scattered Clouds
11:55 AM 77.7 °F - 69.8 °F 76% 30.06 in 10.0 mi South 8.1 mph - N/A   Scattered Clouds
11:56 AM 77.5 °F - 69.6 °F 76% 30.06 in 10.0 mi South 8.1 mph - N/A   Scattered Clouds
12:18 PM 78.6 °F - 69.8 °F 74% 30.06 in 10.0 mi South 8.1 mph - N/A   Scattered Clouds
12:37 PM 79.3 °F - 70.3 °F 74% 30.05 in 10.0 mi South 12.7 mph 21.9 mph N/A   Scattered Clouds
12:55 PM 80.8 °F 84.6 °F 70.9 °F 72% 30.04 in 10.0 mi South 10.4 mph 17.3 mph N/A   Scattered Clouds
1:15 PM 79.7 °F - 70.3 °F 73% 30.04 in 10.0 mi SSW 9.2 mph - N/A   Mostly Cloudy
1:16 PM 79.7 °F - 70.3 °F 73% 30.04 in 10.0 mi SSW 8.1 mph - N/A   Mostly Cloudy
1:35 PM 81.3 °F 85.8 °F 72.0 °F 73% 30.03 in 10.0 mi South 8.1 mph - N/A   Mostly Cloudy
1:40 PM 81.1 °F 85.2 °F 71.4 °F 72% 30.03 in 10.0 mi SSW 10.4 mph - N/A   Scattered Clouds
1:58 PM 81.1 °F 85.4 °F 71.8 °F 73% 30.03 in 10.0 mi SSW 12.7 mph 18.4 mph N/A   Mostly Cloudy
2:16 PM 81.5 °F 85.5 °F 70.7 °F 70% 30.02 in 10.0 mi SW 13.8 mph 20.7 mph N/A   Mostly Cloudy
2:35 PM 81.7 °F 85.8 °F 70.9 °F 70% 30.00 in 10.0 mi SW 17.3 mph 23.0 mph N/A   Scattered Clouds
2:36 PM 81.9 °F 86.2 °F 71.1 °F 70% 30.00 in 10.0 mi SW 18.4 mph 24.2 mph N/A   Scattered Clouds
2:55 PM 83.5 °F 88.8 °F 71.8 °F 68% 30.00 in 10.0 mi SW 13.8 mph 25.3 mph N/A   Scattered Clouds
2:56 PM 83.5 °F 88.8 °F 71.8 °F 68% 30.00 in 10.0 mi SSW 16.1 mph 25.3 mph N/A   Scattered Clouds
3:18 PM 82.8 °F 87.2 °F 70.7 °F 67% 29.99 in 10.0 mi SW 13.8 mph 20.7 mph N/A   Mostly Cloudy
3:37 PM 81.7 °F 84.9 °F 69.1 °F 65% 29.99 in 10.0 mi SW 16.1 mph 23.0 mph N/A   Overcast
3:55 PM 82.0 °F 85.3 °F 68.7 °F 64% 29.98 in 10.0 mi SW 16.1 mph 24.2 mph N/A   Overcast
4:15 PM 79.7 °F - 70.3 °F 73% 29.98 in 10.0 mi WSW 13.8 mph 18.4 mph N/A   Overcast
4:16 PM 79.9 °F - 70.5 °F 73% 29.98 in 10.0 mi WSW 15.0 mph 19.6 mph N/A   Overcast
4:35 PM 81.7 °F 85.2 °F 69.8 °F 67% 29.99 in 10.0 mi WSW 11.5 mph 26.5 mph N/A   Scattered Clouds
4:57 PM 81.5 °F 83.1 °F 64.6 °F 56% 29.99 in 10.0 mi SW 16.1 mph 26.5 mph N/A   Scattered Clouds
5:16 PM 81.0 °F 82.7 °F 65.1 °F 58% 30.00 in 10.0 mi SW 16.1 mph 20.7 mph N/A   Scattered Clouds
5:35 PM 81.5 °F 82.7 °F 62.8 °F 53% 30.00 in 10.0 mi WSW 18.4 mph 23.0 mph N/A   Scattered Clouds
5:36 PM 81.3 °F 82.3 °F 62.2 °F 52% 30.00 in 10.0 mi WSW 16.1 mph 23.0 mph N/A   Scattered Clouds
5:55 PM 80.1 °F 81.1 °F 61.5 °F 53% 30.01 in 10.0 mi WSW 11.5 mph 20.7 mph N/A   Clear
6:19 PM 79.2 °F - 63.3 °F 58% 30.01 in 10.0 mi WSW 11.5 mph 19.6 mph N/A   Scattered Clouds
6:37 PM 79.5 °F - 64.0 °F 59% 30.02 in 10.0 mi WSW 6.9 mph - N/A   Mostly Cloudy
6:55 PM 78.3 °F - 61.9 °F 57% 30.02 in 10.0 mi WSW 9.2 mph 16.1 mph N/A   Mostly Cloudy
6:56 PM 78.1 °F - 61.9 °F 57% 30.02 in 10.0 mi WSW 8.1 mph 16.1 mph N/A   Mostly Cloudy
7:15 PM 77.0 °F - 62.1 °F 60% 30.02 in 10.0 mi West 11.5 mph - N/A   Mostly Cloudy
7:16 PM 77.0 °F - 61.9 °F 59% 30.02 in 10.0 mi West 11.5 mph - N/A   Mostly Cloudy
7:35 PM 74.8 °F - 62.8 °F 66% 30.03 in 10.0 mi West 6.9 mph - N/A   Mostly Cloudy
7:58 PM 73.4 °F - 61.5 °F 66% 30.03 in 10.0 mi West 8.1 mph 16.1 mph N/A   Scattered Clouds
8:16 PM 72.5 °F - 61.5 °F 68% 30.03 in 10.0 mi West 9.2 mph - N/A   Scattered Clouds
8:35 PM 71.6 °F - 61.9 °F 71% 30.05 in 10.0 mi WNW 17.3 mph 23.0 mph N/A   Scattered Clouds
8:55 PM 70.2 °F - 60.4 °F 71% 30.06 in 10.0 mi West 12.7 mph 21.9 mph N/A   Mostly Cloudy
9:19 PM 68.2 °F - 59.4 °F 73% 30.07 in 10.0 mi West 17.3 mph 24.2 mph N/A   Clear
9:37 PM 67.1 °F - 59.0 °F 75% 30.08 in 10.0 mi West 11.5 mph 23.0 mph N/A   Clear
9:55 PM 65.8 °F - 59.0 °F 79% 30.08 in 10.0 mi West 10.4 mph - N/A   Clear
9:56 PM 65.8 °F - 59.0 °F 79% 30.08 in 10.0 mi West 9.2 mph - N/A   Clear
10:15 PM 65.3 °F - 59.0 °F 80% 30.08 in 10.0 mi West 8.1 mph 17.3 mph N/A   Clear
10:35 PM 64.4 °F - 58.8 °F 82% 30.10 in 10.0 mi West 10.4 mph 16.1 mph N/A   Clear
10:40 PM 64.4 °F - 58.6 °F 82% 30.10 in 10.0 mi West 10.4 mph 16.1 mph N/A   Clear
10:58 PM 63.7 °F - 58.5 °F 83% 30.10 in 10.0 mi West 6.9 mph - N/A   Clear
11:35 PM 62.8 °F - 58.3 °F 85% 30.10 in 10.0 mi West 9.2 mph - N/A   Clear
11:55 PM 62.8 °F - 58.1 °F 85% 30.11 in 10.0 mi West 10.4 mph 17.3 mph N/A   Clear
11:56 PM 62.8 °F - 58.1 °F 85% 30.11 in 10.0 mi West 10.4 mph 17.3 mph N/A   Clear